Location: Rosenheim
(47.8408°N, 12.2113°E)
Time: 21:38:33
(UTC+01:00)

ISS - Pass Details

Date: 12 February 2018
Orbit: 402 x 407 km, 51.6° (Epoch: 24 February)

Event Time Altitude Azimuth Distance (km) Brightness Sun altitude
Rises 18:32:11 0° 289° (WNW) 2,321 1.3 -11.1°
Reaches altitude 10° 18:34:30 10° 274° (W) 1,458 0.4 -11.5°
Maximum altitude 18:37:11 24° 219° (SW) 889 -1.5 -12.0°
Drops below altitude 10° 18:39:52 10° 163° (SSE) 1,452 -1.1 -12.4°
Enters shadow 18:41:59 - 150° (SSE) 2,235 -0.3 -12.8°
